Rotterdam, Netherlands

1:11 PM CET on November 24, 2017 (GMT +0100)
Rotterdam

Weather History for EHRD - September, 2013

Change the Weather History Date:

Saturday, September 14, 2013

  Actual Average Record
Temperature  
Mean Temperature 58 °F -  
Max Temperature 64 °F 60 °F 89 °F (2016)
Min Temperature 51 °F 48 °F 42 °F (2003)
Degree Days  
Heating Degree Days 8    
Growing Degree Days 8 (Base 50)    
Moisture  
Dew Point 57 °F    
Average Humidity 88    
Maximum Humidity 100    
Minimum Humidity 67    
Precipitation  
Precipitation 0.08 in - - ()
Sea Level Pressure  
Sea Level Pressure 29.87 in    
Wind  
Wind Speed 10 mph ()    
Max Wind Speed 20 mph    
Max Gust Speed 32 mph    
Visibility 6.2 miles    
Events Rain    
Averages and records for this station are not official NWS values.
T = Trace of Precipitation, MM = Missing Value Source: Averaged Metar Reports

Daily Weather History Graph

Daily Weather History Graph

Search for Another Location

Airport or City:

Trip Planner

Search our weather history database for the weather conditions in past years. The results will help you decide how hot, cold, wet, or windy it might be!

Date:

Astronomy

Sep. 14, 2013 Rise Set
Actual Time 7:15 AM CEST 7:59 PM CEST
Civil Twilight 6:41 AM CEST 8:33 PM CEST
Nautical Twilight 6:00 AM CEST 9:13 PM CEST
Astronomical Twilight 5:16 AM CEST 9:57 PM CEST
Moon 4:56 PM CEST (9/14) 12:58 AM CEST (9/14)
Length of Visible Light 13h 51m
Length of Day
12h 43m
Waxing Gibbous, 69% of the Moon is Illuminated
Sep 14
Waxing Gibbous
Sep 19
Full
Sep 27
Last Quarter
Oct 5
New
Oct 12
First Quarter

Hourly Weather History & Observations

Time (CEST) Temp. Dew Point Humidity Pressure Visibility Wind Dir Wind Speed Gust Speed Precip Events Conditions
12:25 AM 60.8 °F 60.8 °F 100% 29.95 in - SSE 8.1 mph - N/A   Drizzle
12:55 AM 60.8 °F 60.8 °F 100% 29.95 in 3.7 mi South 6.9 mph - N/A   Light Drizzle
1:25 AM 60.8 °F 60.8 °F 100% 29.92 in 2.8 mi South 6.9 mph - N/A   Overcast
1:55 AM 62.6 °F 60.8 °F 94% 29.92 in - SW 10.4 mph - N/A   Light Drizzle
2:00 AM 62 °F 61 °F 96% 29.93 in 3 mi SW 11.2 mph - - Rain Heavy Rain
2:25 AM 62.6 °F 60.8 °F 94% 29.92 in 3.1 mi SSW 9.2 mph - N/A   Drizzle
2:55 AM 62.6 °F 60.8 °F 94% 29.89 in 3.7 mi SSW 11.5 mph - N/A Rain Light Rain
3:25 AM 60.8 °F 60.8 °F 100% 29.89 in 3.1 mi SSW 11.5 mph - N/A Rain Light Rain Showers
3:55 AM 60.8 °F 60.8 °F 100% 29.86 in 4.3 mi South 10.4 mph - N/A Rain Light Rain
4:25 AM 60.8 °F 60.8 °F 100% 29.86 in - South 10.4 mph - N/A   Drizzle
4:55 AM 60.8 °F 60.8 °F 100% 29.86 in - SSW 10.4 mph - N/A   Heavy Drizzle
5:25 AM 62.6 °F 60.8 °F 94% 29.83 in 4.3 mi South 9.2 mph - N/A   Mostly Cloudy
5:55 AM 60.8 °F 60.8 °F 100% 29.83 in 2.5 mi South 11.5 mph - N/A Rain Light Rain
6:25 AM 60.8 °F 60.8 °F 100% 29.80 in 3.7 mi South 12.7 mph - N/A Rain Light Rain Showers
6:55 AM 60.8 °F 60.8 °F 100% 29.80 in 3.1 mi South 11.5 mph - N/A Rain Heavy Rain Showers
7:25 AM 62.6 °F 60.8 °F 94% 29.80 in 3.1 mi SSW 11.5 mph 23.0 mph N/A Rain Light Rain Showers
7:55 AM 60.8 °F 60.8 °F 100% 29.77 in 6.2 mi SW 12.7 mph - N/A Rain Light Rain Showers
8:00 AM 61 °F 60 °F 97% 29.80 in 4 mi SW 13.4 mph - - Rain Rain
8:25 AM 62.6 °F 60.8 °F 94% 29.77 in 6.2 mi SSW 13.8 mph - N/A   Overcast
8:55 AM 62.6 °F 59.0 °F 88% 29.77 in 6.2 mi SSW 16.1 mph - N/A   Overcast
9:25 AM 62.6 °F 59.0 °F 88% 29.77 in 6.2 mi SSW 16.1 mph - N/A   Overcast
9:55 AM 62.6 °F 60.8 °F 94% 29.74 in 6.2 mi SSW 13.8 mph - N/A   Mostly Cloudy
10:25 AM 62.6 °F 59.0 °F 88% 29.74 in 6.2 mi SSW 18.4 mph - N/A   Overcast
10:55 AM 62.6 °F 59.0 °F 88% 29.74 in 6.2 mi SSW 16.1 mph - N/A   Mostly Cloudy
11:00 AM 64 °F 59 °F 80% 29.77 in 19 mi SW 13.4 mph - - Rain Rain
11:25 AM 64.4 °F 60.8 °F 88% 29.74 in 6.2 mi SW 13.8 mph - N/A   Mostly Cloudy
11:55 AM 62.6 °F 60.8 °F 94% 29.74 in 6.2 mi West 9.2 mph - N/A   Mostly Cloudy
12:25 PM 60.8 °F 59.0 °F 94% 29.77 in - NW 16.1 mph 27.6 mph N/A   Drizzle
12:55 PM 59.0 °F 57.2 °F 94% 29.80 in 1.8 mi NNW 19.6 mph 31.1 mph N/A   Heavy Drizzle
1:25 PM 59.0 °F 57.2 °F 94% 29.83 in - NNW 19.6 mph 32.2 mph N/A Rain Light Rain
1:55 PM 59.0 °F 57.2 °F 94% 29.83 in - NNW 17.3 mph 28.8 mph N/A   Drizzle
2:00 PM 59 °F 57 °F 91% 29.86 in 4 mi NNW 15.7 mph - - Rain Heavy Rain
2:25 PM 59.0 °F 57.2 °F 94% 29.86 in 5.0 mi NW 10.4 mph - N/A   Drizzle
2:55 PM 59.0 °F 55.4 °F 88% 29.86 in 6.2 mi NNW 12.7 mph - N/A   Overcast
3:25 PM 60.8 °F 55.4 °F 82% 29.86 in 6.2 mi NNW 11.5 mph - N/A   Mostly Cloudy
3:55 PM 60.8 °F 55.4 °F 82% 29.86 in 6.2 mi NNW 12.7 mph - N/A   Mostly Cloudy
4:25 PM 62.6 °F 53.6 °F 72% 29.89 in 6.2 mi NNW 13.8 mph - N/A   Scattered Clouds
4:55 PM 60.8 °F 53.6 °F 77% 29.89 in 6.2 mi NNW 16.1 mph - N/A   Mostly Cloudy
5:00 PM 60 °F 53 °F 70% 29.90 in 13 mi NNW 15.7 mph - -   Scattered Clouds
5:25 PM 60.8 °F 53.6 °F 77% 29.89 in 6.2 mi NNW 13.8 mph - N/A   Mostly Cloudy
5:55 PM 60.8 °F 51.8 °F 72% 29.89 in 6.2 mi NNW 11.5 mph - N/A   Mostly Cloudy
6:25 PM 60.8 °F 51.8 °F 72% 29.92 in 6.2 mi NNW 11.5 mph - N/A   Unknown
6:55 PM 59.0 °F 51.8 °F 77% 29.92 in 6.2 mi NNW 8.1 mph - N/A   Overcast
7:25 PM 59.0 °F 51.8 °F 77% 29.92 in 6.2 mi NNW 9.2 mph - N/A   Mostly Cloudy
7:55 PM 57.2 °F 50.0 °F 77% 29.92 in 6.2 mi NNW 6.9 mph - N/A   Mostly Cloudy
8:00 PM 57 °F 49 °F 67% 29.95 in 16 mi NNW 6.7 mph - -   Partly Cloudy
8:25 PM 55.4 °F 48.2 °F 77% 29.92 in 6.2 mi NNW 6.9 mph - N/A   Unknown
8:55 PM 51.8 °F 48.2 °F 88% 29.95 in 6.2 mi NW 4.6 mph - N/A   Unknown
9:25 PM 55.4 °F 50.0 °F 82% 29.95 in 6.2 mi NNW 8.1 mph - N/A Rain Light Rain
9:55 PM 55.4 °F 50.0 °F 82% 29.95 in 6.2 mi NW 5.8 mph - N/A   Mostly Cloudy
10:25 PM 55.4 °F 50.0 °F 82% 29.95 in 6.2 mi NNW 5.8 mph - N/A   Unknown
10:55 PM 57.2 °F 50.0 °F 77% 29.95 in 6.2 mi NNW 9.2 mph - N/A   Scattered Clouds
11:00 PM 56 °F 50 °F 73% 29.98 in 19 mi NNW 8.9 mph - - Rain Rain
11:25 PM 55.4 °F 50.0 °F 82% 29.98 in 6.2 mi North 3.5 mph - N/A   Unknown
11:55 PM 51.8 °F 50.0 °F 94% 29.98 in 6.2 mi Calm Calm - N/A   Partly Cloudy